Location: Joplin, MO
(37.0842°N, 94.5133°W)
Time: 13:06:56
(UTC+02:00)

Altair - Visible Passes

Search period start: 29 March 2023 00:00
Search period end: 08 April 2023 00:00
Orbit: 1501 x 1682 km, 47.2° (Epoch: 28 March)

Date Brightness Start Highest point End Pass type
(mag) Time Alt. Az. Time Alt. Az. Time Alt. Az.
29 Mar 9.0 10:19:48 21° SE 10:19:48 21° SE 10:26:09 10° E visible
29 Mar 7.5 12:17:50 29° SW 12:23:22 74° SE 12:32:36 10° ENE visible
30 Mar 9.1 09:56:07 18° ESE 09:56:07 18° ESE 10:00:34 10° E visible
30 Mar 7.6 11:54:08 38° SSW 11:58:12 69° SE 12:07:24 10° ENE visible
31 Mar 9.3 09:32:22 14° ESE 09:32:22 14° ESE 09:34:51 10° E visible
31 Mar 7.6 11:30:24 48° SSW 11:33:02 64° SE 11:42:12 10° ENE visible
31 Mar 7.8 13:28:39 10° W 13:37:58 58° NNW 13:47:02 10° ENE visible
01 Apr 9.5 09:08:34 11° E 09:08:34 11° E 09:08:59 10° E visible
01 Apr 7.6 11:06:35 55° SSE 11:07:53 59° SE 11:16:59 10° ENE visible
01 Apr 7.7 13:04:36 15° W 13:12:42 60° NNW 13:21:50 10° ENE visible
02 Apr 7.7 10:42:43 54° SE 10:42:45 54° SE 10:51:46 10° ENE visible
02 Apr 7.7 12:40:43 21° W 12:47:27 63° NNW 12:56:39 10° ENE visible
03 Apr 8.0 10:18:48 48° ESE 10:18:48 48° ESE 10:26:32 10° ENE visible
03 Apr 7.6 12:16:48 29° W 12:22:12 66° NNW 12:31:27 10° ENE visible
04 Apr 8.3 09:54:50 40° E 09:54:50 40° E 10:01:17 10° ENE visible
04 Apr 7.5 11:52:50 39° W 11:56:57 70° NNW 12:06:16 10° ENE visible
05 Apr 8.6 09:30:49 32° E 09:30:49 32° E 09:36:01 10° ENE visible
05 Apr 7.5 11:28:49 50° W 11:31:43 74° NNW 11:41:06 10° ENE visible
05 Apr 8.2 13:28:35 10° WNW 13:37:36 46° N 13:46:23 10° ENE visible
06 Apr 8.9 09:06:46 25° E 09:06:46 25° E 09:10:44 10° ENE visible
06 Apr 7.4 11:04:45 63° W 11:06:30 78° NNW 11:15:55 10° ENE visible
06 Apr 8.2 13:03:13 10° W 13:12:17 46° N 13:21:07 10° ENE visible
07 Apr 9.1 08:42:40 20° E 08:42:40 20° E 08:45:25 10° ENE visible
07 Apr 7.3 10:40:40 78° W 10:41:17 82° NNW 10:50:44 10° ENE visible
07 Apr 8.1 12:38:40 13° W 12:46:59 47° N 12:55:51 10° ENE visible
